HST (20580 NORAD) Tracking and Keplerian Element Data

This shows tracking and keplerian element data for the satellite.

Feedback or suggestion? Click here.




ElementValue
Catalog20580
NameHST
Epoch Orbit37329
Epoch Day352.2375601
Epoch Year2018
RAAN338.3352
Inclination28.4706
Eccentricity0.0002496
Argument of Perigee325.7316
Mean Anonmoly146.2108
Mean Motion15.09146146
Decay Rate4.32E-06
L11 20580U 90037B 18352.23756010 .00000432 00000-0 15410-4 0 9991
L22 20580 28.4706 338.3352 0002496 325.7316 146.2108 15.09146146373292

Live tracking and technical data element details for HST (NORAD 20580). HST can be tracked NOW for your location showing map with azimuth and elevation plus other details from your city location.

Track the satellite on the map from your city or location and see movement details for azimuth, elevation, latitude, longitude, range, height, and movement on the map or in text.







IsCatalogInMostPopularTable: catalog: 20580, numindb: 62
Update: records affected: 1



GetName: 20580 HST

Hit Count: updated at: Wed, 19 Dec 2018 16:03:37 GMT